Estación de Recoleta

Ultimos registro cada 15 minutos 91
Estación Fecha / Hora Temperatura Humedad Lluvia Velocidad Dirección Radiación Presion
91 Recoleta 02-05-2026 22:30 11,7 68,6 0 0 307 0,6 969,9
90 Recoleta 02-05-2026 22:15 11,6 67,3 0 0 316 0,6 969,7
89 Recoleta 02-05-2026 22:00 12,4 65,6 0 0 305 0,6 969,7
88 Recoleta 02-05-2026 21:45 12,5 66,2 0 0 6 0,6 969,5
87 Recoleta 02-05-2026 21:30 12,4 66,6 0 0 31 0,6 969,6
86 Recoleta 02-05-2026 21:15 14,1 60,6 0 0 18 0,6 969,7
85 Recoleta 02-05-2026 21:00 12,6 66,5 0 0 324 0,6 969,6
84 Recoleta 02-05-2026 20:45 13,4 63,4 0 0 324 0,6 969,5
83 Recoleta 02-05-2026 20:30 13,2 65,1 0 0 293 0,6 969,6
82 Recoleta 02-05-2026 20:15 13 66,5 0 0 117 0,6 969,8
81 Recoleta 02-05-2026 20:00 13,7 63,5 0 0 117 0,6 969,9
80 Recoleta 02-05-2026 19:45 15,7 56 0 0,3 117 0,6 970
79 Recoleta 02-05-2026 19:30 16,4 53,8 0 0,3 124 0,6 969,9
78 Recoleta 02-05-2026 19:15 16,9 52,2 0 0,3 140 0,6 969,9
77 Recoleta 02-05-2026 19:00 17,9 48,9 0 0,3 135 0,6 969,4
76 Recoleta 02-05-2026 18:45 19 44,9 0 0,3 157 0,6 969,2
75 Recoleta 02-05-2026 18:30 20,3 40,6 0 0,3 131 0,6 969,2
74 Recoleta 02-05-2026 18:15 20,8 39 0 0,3 133 1,9 969,1
73 Recoleta 02-05-2026 18:00 21,9 36,3 0 0,3 133 6,9 969
72 Recoleta 02-05-2026 17:45 22,8 34,4 0 1 145 10,6 968,8
71 Recoleta 02-05-2026 17:30 23,8 32,6 0 1 154 14,4 968,4
70 Recoleta 02-05-2026 17:15 25 31,6 0 1,3 152 55,6 968,5
69 Recoleta 02-05-2026 17:00 25,5 31,5 0 1,7 145 79,4 968,4
68 Recoleta 02-05-2026 16:45 26,9 29,1 0 1,3 145 89,4 968,2
67 Recoleta 02-05-2026 16:30 27 30,8 0 1,7 145 176,9 968
66 Recoleta 02-05-2026 16:15 27,4 31,1 0 1,7 146 23,1 968,1
65 Recoleta 02-05-2026 16:00 27,9 30,3 0 1,7 139 265,6 968
64 Recoleta 02-05-2026 15:45 28,9 27,9 0 2 132 311,9 967,7
63 Recoleta 02-05-2026 15:30 30,2 25,7 0 1,7 142 354,4 967,7
62 Recoleta 02-05-2026 15:15 31,1 24,7 0 1,7 142 395,6 967,7
61 Recoleta 02-05-2026 15:00 32,1 22,2 0 1,3 156 439,4 967,6
60 Recoleta 02-05-2026 14:45 32,6 18 0 1,3 160 480,6 967,6
59 Recoleta 02-05-2026 14:30 32,9 16,7 0 1 159 516,9 967,7
58 Recoleta 02-05-2026 14:15 32,6 17,9 0 1,3 136 549,4 967,6
57 Recoleta 02-05-2026 14:00 31,8 19,4 0 1,7 138 578,1 967,5
56 Recoleta 02-05-2026 13:45 32 18,3 0 1,3 135 604,4 967,6
55 Recoleta 02-05-2026 13:30 31,7 18,3 0 1,3 132 625,6 967,7
54 Recoleta 02-05-2026 13:15 30,9 19,9 0 1,3 139 643,1 968
53 Recoleta 02-05-2026 13:00 30,7 20,7 0 1,3 138 658,1 968,2
52 Recoleta 02-05-2026 12:45 29,8 22,7 0 1,3 133 666,9 968,4
51 Recoleta 02-05-2026 12:30 29,2 23,5 0 1 138 673,1 968,4
50 Recoleta 02-05-2026 12:15 29,3 22,1 0 1 132 675,6 968,6
49 Recoleta 02-05-2026 12:00 29,1 22,1 0 0,7 140 674,4 968,7
48 Recoleta 02-05-2026 11:45 28,3 20,7 0 0,7 129 669,4 968,8
47 Recoleta 02-05-2026 11:30 27,5 23,1 0 0,7 135 659,4 968,9
46 Recoleta 02-05-2026 11:15 27,1 25,3 0 0,3 140 641,9 969
45 Recoleta 02-05-2026 11:00 25,8 29,7 0 0 142 621,9 969
44 Recoleta 02-05-2026 10:45 25,2 29,9 0 0 143 603,1 969,1
43 Recoleta 02-05-2026 10:30 23,7 32,8 0 0 143 575,6 969,1
42 Recoleta 02-05-2026 10:15 22,4 37,3 0 0 143 546,9 968,9
41 Recoleta 02-05-2026 10:00 22,2 39,8 0 0 166 175,6 969
40 Recoleta 02-05-2026 09:45 21 43,6 0 0 180 114,4 969,2
39 Recoleta 02-05-2026 09:30 20,7 44,7 0 0 202 24,4 969,2
38 Recoleta 02-05-2026 09:15 19 50,5 0 0 292 395,6 969,1
37 Recoleta 02-05-2026 09:00 17 54,6 0 0 291 350,6 969,1
36 Recoleta 02-05-2026 08:45 15,8 58,4 0 0 291 305,6 969,2
35 Recoleta 02-05-2026 08:30 15,5 62,6 0 0 291 256,9 969
34 Recoleta 02-05-2026 08:15 13,4 68,3 0 0 291 204,4 969
33 Recoleta 02-05-2026 08:00 10,7 81,6 0 0 291 151,9 969
32 Recoleta 02-05-2026 07:45 8 87,2 0 0 291 13,1 969
31 Recoleta 02-05-2026 07:30 7 86,8 0 0 291 6,9 969
30 Recoleta 02-05-2026 07:15 6,9 86,8 0 0 291 1,9 969
29 Recoleta 02-05-2026 07:00 6,9 86,9 0 0 291 0,6 968,9
28 Recoleta 02-05-2026 06:45 7 86,8 0 0 292 0,6 968,9
27 Recoleta 02-05-2026 06:30 7,1 86,7 0 0 292 0,6 968,7
26 Recoleta 02-05-2026 06:15 7,3 85,9 0 0 292 0,6 968,8
25 Recoleta 02-05-2026 06:00 7,8 85,4 0 0 292 0,6 968,6
24 Recoleta 02-05-2026 05:45 7,6 86 0 0 293 0,6 968,8
23 Recoleta 02-05-2026 05:30 7,3 87,5 0 0 295 0,6 968,7
22 Recoleta 02-05-2026 05:15 7,4 86,5 0 0 295 0,6 968,7
21 Recoleta 02-05-2026 05:00 7,6 86,4 0 0 295 0,6 968,9
20 Recoleta 02-05-2026 04:45 7,8 86,5 0 0 295 0,6 968,8
19 Recoleta 02-05-2026 04:30 7,7 86,6 0 0 295 0,6 968,9
18 Recoleta 02-05-2026 04:15 7,9 85,8 0 0 295 0,6 968,9
17 Recoleta 02-05-2026 04:00 8,3 85,3 0 0 295 0,6 968,9
16 Recoleta 02-05-2026 03:45 8,3 84,6 0 0 295 0,6 968,9
15 Recoleta 02-05-2026 03:30 8,7 83,5 0 0 296 0,6 969,1
14 Recoleta 02-05-2026 03:15 8,6 84,6 0 0 303 0,6 969,1
13 Recoleta 02-05-2026 03:00 8,5 84,8 0 0 303 0,6 969,3
12 Recoleta 02-05-2026 02:45 8,5 84,7 0 0 305 0,6 969,3
11 Recoleta 02-05-2026 02:30 8,7 85,6 0 0 305 0,6 969,5
10 Recoleta 02-05-2026 02:15 8,7 85,7 0 0 307 0,6 969,6
9 Recoleta 02-05-2026 02:00 8,9 85 0 0 310 0,6 969,9
8 Recoleta 02-05-2026 01:45 9,2 84,6 0 0 312 0,6 970
7 Recoleta 02-05-2026 01:30 9,1 85,1 0 0 312 0,6 970,1
6 Recoleta 02-05-2026 01:15 9,3 85,5 0 0 314 0,6 970,2
5 Recoleta 02-05-2026 01:00 9,5 83,6 0 0 314 0,6 970,4
4 Recoleta 02-05-2026 00:45 10,1 82,9 0 0 312 0,6 970,4
3 Recoleta 02-05-2026 00:30 9,5 86,2 0 0 305 0,6 970,5
2 Recoleta 02-05-2026 00:15 9,5 86,7 0 0 306 0,6 970,7
1 Recoleta 02-05-2026 00:00 9,6 86,2 0 0 309 0,6 970,6